Location: ??????
(38.3184°N, 23.6932°E)
Time: 18:57:36
(UTC+00:00)

Cosmos 1727 Rocket - Pass Details

Date: 07 June 2022
Orbit: 961 x 996 km, 82.9° (Epoch: 28 June)

Event Time Altitude Azimuth Distance (km) Brightness Sun altitude
Rises 01:04:01 0° 139° (SE) 3,688 6.9 -18.3°
Reaches altitude 10° 01:07:27 10° 120° (ESE) 2,750 6.5 -17.9°
Maximum altitude 01:11:19 17° 82° (E) 2,277 6.5 -17.4°
Drops below altitude 10° 01:15:12 10° 44° (NE) 2,767 7.7 -16.9°
Sets 01:18:38 0° 25° (NNE) 3,723 8.5 -16.5°
